Location: Casilda
(33.0440°S, 61.1680°W)
Time: 07:36:56
(UTC-03:00)

ISS - Visible Passes

Search period start: 26 July 2017 00:00
Search period end: 05 August 2017 00:00
Orbit: 400 x 408 km, 51.6° (Epoch: 26 July)

Date Brightness Start Highest point End Pass type
(mag) Time Alt. Az. Time Alt. Az. Time Alt. Az.
26 Jul -0.5 07:12:54 10° NNE 07:14:47 14° NE 07:16:41 10° E visible
28 Jul -2.3 07:03:15 10° NNW 07:06:22 40° NE 07:09:33 10° ESE visible
29 Jul -1.0 06:11:48 10° N 06:14:12 19° NE 06:16:36 10° E visible
30 Jul -3.8 06:55:16 13° NW 06:58:04 65° SW 07:01:25 10° SE visible
31 Jul -2.9 06:06:12 48° E 06:06:12 48° E 06:09:01 10° SE visible
01 Aug -2.6 06:49:29 24° SW 06:49:53 25° SW 06:52:45 10° SSE visible
02 Aug -1.3 05:59:47 17° SSE 05:59:47 17° SSE 06:00:41 10° SE visible
03 Aug -1.4 06:42:33 12° SSW 06:42:33 12° SSW 06:43:25 10° S visible
